Hourly Weather Rudziniec

Today, 18 April, Sunday

Time Temperature Precipitation Wind Pressure Humidity
00:00 +3°C° 0 mm 0 mps 745 mmHg 97%
01:00 +5°C° 0 mm 1 mps 745 mmHg 97%
02:00 +4°C° 0 mm 0 mps 744 mmHg 97%
03:00 +4°C° 0 mm 0 mps 744 mmHg 97%
04:00 +4°C° 0 mm 0 mps 744 mmHg 97%
05:00 +4°C° 0 mm 0 mps 744 mmHg 96%
06:00 +4°C° 0 mm 0 mps 744 mmHg 96%
07:00 +4°C° 0 mm 0 mps 744 mmHg 95%
08:00 +6°C° 0 mm 1 mps 744 mmHg 91%
09:00 +6°C° 0 mm 1 mps 744 mmHg 88%
10:00 +7°C° 0 mm 1 mps 744 mmHg 85%
11:00 +8°C° 0 mm 1 mps 744 mmHg 80%
12:00 +7°C° 0 mm 2 mps 744 mmHg 76%
13:00 +8°C° 0 mm 2 mps 744 mmHg 72%
14:00 +8°C° 0 mm 2 mps 744 mmHg 69%
15:00 +9°C° 0 mm 2 mps 744 mmHg 67%
16:00 +9°C° 0 mm 2 mps 744 mmHg 64%
17:00 +8°C° 0 mm 2 mps 744 mmHg 68%
18:00 +8°C° 0 mm 2 mps 744 mmHg 72%
19:00 +8°C° 0 mm 1 mps 744 mmHg 76%
20:00 +8°C° 0 mm 1 mps 744 mmHg 77%
21:00 +8°C° 0 mm 1 mps 744 mmHg 78%
22:00 +8°C° 0 mm 1 mps 744 mmHg 79%
23:00 +8°C° 0 mm 1 mps 744 mmHg 80%

Tomorrow, 19 April, Monday

Time Temperature Precipitation Wind Pressure Humidity
00:00 +7°C° 0 mm 2 mps 744 mmHg 80%
01:00 +7°C° 0 mm 2 mps 744 mmHg 81%
02:00 +6°C° 0 mm 2 mps 744 mmHg 82%
03:00 +6°C° 0 mm 2 mps 744 mmHg 82%
04:00 +6°C° 0 mm 2 mps 743 mmHg 83%
05:00 +6°C° 0.2 mm 2 mps 743 mmHg 84%
06:00 +7°C° 0.2 mm 2 mps 743 mmHg 85%
07:00 +7°C° 0.2 mm 2 mps 743 mmHg 85%
08:00 +7°C° 1 mm 2 mps 743 mmHg 88%
09:00 +7°C° 1 mm 2 mps 743 mmHg 91%
10:00 +7°C° 1 mm 2 mps 743 mmHg 94%
11:00 +8°C° 0.4 mm 2 mps 743 mmHg 88%
12:00 +9°C° 0.4 mm 2 mps 743 mmHg 83%
13:00 +10°C° 0.4 mm 2 mps 743 mmHg 78%
14:00 +12°C° 0.2 mm 2 mps 742 mmHg 74%
15:00 +12°C° 0.2 mm 3 mps 742 mmHg 71%
16:00 +12°C° 0.2 mm 3 mps 742 mmHg 67%
17:00 +11°C° 0.1 mm 3 mps 742 mmHg 73%
18:00 +10°C° 0.1 mm 2 mps 742 mmHg 78%
19:00 +8°C° 0.1 mm 2 mps 742 mmHg 84%
20:00 +8°C° 0 mm 2 mps 742 mmHg 86%
21:00 +8°C° 0 mm 2 mps 742 mmHg 87%
22:00 +7°C° 0 mm 2 mps 742 mmHg 88%
23:00 +7°C° 0 mm 2 mps 742 mmHg 88%

Day after tomorrow, 20 April, Tuesday

Time Temperature Precipitation Wind Pressure Humidity
00:00 +7°C° 0 mm 2 mps 742 mmHg 88%
01:00 +7°C° 0 mm 1 mps 741 mmHg 88%
02:00 +6°C° 0 mm 2 mps 741 mmHg 88%
03:00 +6°C° 0 mm 2 mps 741 mmHg 87%
04:00 +6°C° 0 mm 2 mps 741 mmHg 87%
05:00 +7°C° 0 mm 2 mps 741 mmHg 85%
06:00 +7°C° 0 mm 2 mps 741 mmHg 83%
07:00 +7°C° 0 mm 2 mps 741 mmHg 80%
08:00 +9°C° 0.1 mm 2 mps 741 mmHg 75%
09:00 +10°C° 0.1 mm 2 mps 741 mmHg 69%
10:00 +12°C° 0.1 mm 2 mps 741 mmHg 63%
11:00 +12°C° 0.2 mm 2 mps 741 mmHg 63%
12:00 +11°C° 0.2 mm 3 mps 741 mmHg 62%
13:00 +11°C° 0.2 mm 3 mps 741 mmHg 62%
14:00 +12°C° 0.1 mm 2 mps 741 mmHg 61%
15:00 +13°C° 0.1 mm 2 mps 741 mmHg 60%
16:00 +13°C° 0.1 mm 2 mps 740 mmHg 60%
17:00 +12°C° 0 mm 2 mps 740 mmHg 65%
18:00 +10°C° 0 mm 1 mps 741 mmHg 70%
19:00 +9°C° 0 mm 1 mps 741 mmHg 75%
20:00 +9°C° 0 mm 1 mps 741 mmHg 77%
21:00 +9°C° 0 mm 1 mps 741 mmHg 79%
22:00 +8°C° 0 mm 1 mps 741 mmHg 81%
23:00 +8°C° 0 mm 1 mps 741 mmHg 82%

21 April, Wednesday

Time Temperature Precipitation Wind Pressure Humidity
00:00 +8°C° 0 mm 1 mps 741 mmHg 83%
01:00 +8°C° 0 mm 1 mps 741 mmHg 84%
02:00 +8°C° 0.1 mm 1 mps 741 mmHg 85%
03:00 +8°C° 0.1 mm 1 mps 741 mmHg 86%
04:00 +8°C° 0.1 mm 1 mps 741 mmHg 87%
05:00 +8°C° 0 mm 1 mps 741 mmHg 85%
06:00 +9°C° 0 mm 1 mps 741 mmHg 83%
07:00 +9°C° 0 mm 1 mps 741 mmHg 80%
08:00 +11°C° 0.1 mm 1 mps 741 mmHg 72%
09:00 +12°C° 0.1 mm 2 mps 741 mmHg 64%
10:00 +13°C° 0.1 mm 2 mps 741 mmHg 56%
11:00 +14°C° 0 mm 2 mps 740 mmHg 52%
12:00 +15°C° 0 mm 2 mps 740 mmHg 48%
13:00 +16°C° 0 mm 2 mps 740 mmHg 44%
14:00 +16°C° 0 mm 2 mps 740 mmHg 46%
15:00 +16°C° 0 mm 2 mps 739 mmHg 49%
16:00 +14°C° 0 mm 3 mps 739 mmHg 51%
17:00 +14°C° 0.4 mm 2 mps 739 mmHg 60%
18:00 +13°C° 0.4 mm 2 mps 740 mmHg 68%
19:00 +10°C° 0.4 mm 2 mps 740 mmHg 77%
20:00 +10°C° 0.2 mm 2 mps 740 mmHg 80%
21:00 +9°C° 0.2 mm 2 mps 740 mmHg 82%
22:00 +9°C° 0.2 mm 3 mps 740 mmHg 84%
23:00 +8°C° 0 mm 2 mps 741 mmHg 86%

22 April, Thursday

Time Temperature Precipitation Wind Pressure Humidity
00:00 +7°C° 0 mm 2 mps 741 mmHg 88%
01:00 +7°C° 0 mm 2 mps 741 mmHg 90%
02:00 +6°C° 0 mm 2 mps 741 mmHg 90%
03:00 +6°C° 0 mm 2 mps 741 mmHg 91%
04:00 +6°C° 0 mm 2 mps 741 mmHg 91%
05:00 +6°C° 0.1 mm 2 mps 742 mmHg 91%
06:00 +6°C° 0.1 mm 2 mps 742 mmHg 90%
07:00 +6°C° 0.1 mm 2 mps 742 mmHg 89%
08:00 +6°C° 0.3 mm 2 mps 743 mmHg 87%
09:00 +4°C° 0.3 mm 3 mps 743 mmHg 85%
10:00 +3°C° 0.3 mm 4 mps 743 mmHg 83%
11:00 +4°C° 0.1 mm 3 mps 743 mmHg 79%
12:00 +5°C° 0.1 mm 2 mps 743 mmHg 76%
13:00 +5°C° 0.1 mm 2 mps 744 mmHg 73%
14:00 +6°C° 0 mm 2 mps 744 mmHg 68%
15:00 +8°C° 0 mm 3 mps 743 mmHg 63%
16:00 +9°C° 0 mm 3 mps 743 mmHg 58%
17:00 +7°C° 0.1 mm 3 mps 744 mmHg 63%
18:00 +5°C° 0.1 mm 3 mps 744 mmHg 67%
19:00 +5°C° 0.1 mm 2 mps 744 mmHg 71%
20:00 +4°C° 0 mm 3 mps 745 mmHg 75%
21:00 +3°C° 0 mm 3 mps 745 mmHg 79%
22:00 +3°C° 0 mm 4 mps 745 mmHg 83%
23:00 +3°C° 0 mm 4 mps 746 mmHg 84%

23 April, Friday

Time Temperature Precipitation Wind Pressure Humidity
00:00 +3°C° 0 mm 4 mps 746 mmHg 85%
01:00 +1°C° 0 mm 4 mps 746 mmHg 86%
02:00 +1°C° 0 mm 4 mps 746 mmHg 89%
03:00 0°C° 0 mm 4 mps 746 mmHg 91%
04:00 0°C° 0 mm 4 mps 747 mmHg 93%
05:00 0°C° 0 mm 4 mps 747 mmHg 91%
06:00 +1°C° 0 mm 4 mps 747 mmHg 88%
07:00 +1°C° 0 mm 5 mps 748 mmHg 85%
08:00 +2°C° 0.1 mm 5 mps 748 mmHg 80%
09:00 +3°C° 0.1 mm 5 mps 748 mmHg 74%
10:00 +5°C° 0.1 mm 5 mps 749 mmHg 68%
11:00 +6°C° 0.2 mm 5 mps 749 mmHg 66%
12:00 +6°C° 0.2 mm 5 mps 749 mmHg 63%
13:00 +7°C° 0.2 mm 5 mps 749 mmHg 61%
14:00 +7°C° 0.2 mm 5 mps 750 mmHg 62%
15:00 +7°C° 0.2 mm 5 mps 750 mmHg 63%
16:00 +7°C° 0.2 mm 6 mps 750 mmHg 64%
17:00 +6°C° 0.1 mm 5 mps 750 mmHg 65%
18:00 +5°C° 0.1 mm 4 mps 750 mmHg 67%
19:00 +4°C° 0.1 mm 3 mps 751 mmHg 69%
20:00 +4°C° 0 mm 2 mps 751 mmHg 70%
21:00 +3°C° 0 mm 2 mps 751 mmHg 71%
22:00 +3°C° 0 mm 2 mps 752 mmHg 73%
23:00 +2°C° 0 mm 2 mps 752 mmHg 74%
Show more